STARLINK-5237 (54196 NORAD) Tracking and Keplerian Element Data

This shows tracking and keplerian element data for the satellite.

Feedback or suggestion? Click here.




ElementValue
Catalog54196
NameSTARLINK-5237
Epoch Orbit402
Epoch Day324.91667824
Epoch Year2022
RAAN25.7326
Inclination53.2182
Eccentricity0.0002855
Argument of Perigee16.0107
Mean Anonmoly289.6878
Mean Motion15.73197114
Decay Rate-1.68E-05
L11 54196U 22141AR 22324.91667824 -.00001680 00000+0 -75361-5 0 9994
L22 54196 53.2182 25.7326 0002855 16.0107 289.6878 15.73197114 4021



Live tracking and technical data element details for STARLINK-5237 (NORAD 54196). STARLINK-5237 can be tracked NOW for your location showing map with azimuth and elevation plus other details from your city location.







IsCatalogInMostPopularTable: catalog: 54196, numindb: 4
Update: records affected: 1



GetName: 54196 STARLINK-5237

Hit Count: updated at: Mon, 28 Nov 2022 22:24:17 GMT